Vertical_Velocity
-1 -1 -1 -1 -1 -1 -1 -1 -1 -1 -1 -1 -1 -1 -1 -1 -2 -2 -1 -0 -1 -1 -2 -2 -2 -2 -2 -1 -0 -0 -0 0 2 2 2 1 1 1 1 1 1 0 -0 -0 0 1 1 2 3 2 0 -2 -2 -1 -1 -2 -1 0 0 0 0 1 1 1 -1 -2 -0 2 3
-1 -1 -0 -1 -1 -1 -1 -1 -1 -1 -1 -1 -1 -1 -1 -1 -1 -2 -2 -1 -0 -1 -1 -2 -2 -2 -1 -1 -0 -0 -0 -0 0 1 1 1 1 1 1 1 1 1 1 0 1 1 1 2 3 2 0 -2 -3 -3 -3 -3 -1 -1 -1 -1 0 1 1 -0 -3 -2 1 3 3
-0 -0 -0 -0 -1 -1 -1 -1 -1 -1 -1 -1 -1 -1 -0 -0 -1 -1 -1 -1 -0 0 -0 -1 -2 -2 -2 -2 -1 -1 -1 -1 -1 -0 0 0 1 1 1 1 1 1 1 1 2 2 2 4 4 3 1 -1 -3 -3 -4 -4 -1 -0 -1 -1 1 2 1 -2 -2 -0 2 2 2
0 0 -0 -0 -0 -1 -1 -2 -2 -1 -1 -1 -1 -0 0 0 0 -0 -1 -1 -0 0 0 -1 -1 -2 -2 -2 -2 -1 -1 -1 -1 -1 -1 -1 0 1 2 1 1 1 2 2 2 3 4 6 5 3 1 -1 -1 -2 -3 -3 0 1 0 -1 1 1 0 -2 -1 1 2 0 1
1 0 -0 -0 -0 -0 -1 -1 -1 -1 -1 -1 -1 -0 -0 0 -0 -1 -1 -2 -1 -0 -0 0 -1 -1 -2 -2 -2 -2 -2 -1 -1 -2 -2 -2 -1 -0 1 1 1 1 2 2 2 3 5 7 6 4 1 1 0 -2 -2 -0 3 3 1 -0 0 0 0 -0 -0 0 1 0 0
0 0 0 0 -0 -0 -1 -1 -1 -1 -1 -1 -1 -1 -0 -0 -1 -1 -1 -2 -2 -1 -1 -0 -0 -1 -1 -1 -2 -2 -2 -1 -1 -2 -3 -3 -3 -2 -1 0 1 1 1 1 2 3 4 6 5 3 1 1 0 -1 -1 3 4 4 2 1 0 1 1 0 0 0 0 -0 0
-0 -0 -0 0 -0 -0 -1 -1 -1 -1 -1 -2 -1 -1 -0 -0 -0 -0 -1 -1 -2 -2 -1 -1 -1 -1 -1 -1 -1 -1 -1 -1 -1 -1 -1 -2 -3 -3 -2 -2 -1 -0 0 1 2 2 3 5 4 1 -1 -0 -1 -2 -0 4 5 5 3 1 1 3 3 0 1 2 1 -1 1
-0 -0 -0 -0 -1 -1 -1 -1 -1 -2 -2 -2 -2 -1 -1 -1 -0 -0 -0 -1 -1 -1 -1 -1 -1 -1 -1 -1 -1 -1 -1 -1 -0 -0 0 0 -0 -1 -1 -1 -1 -0 -0 1 2 3 3 4 2 1 -1 -0 -1 -1 -0 4 5 5 3 1 2 4 5 2 2 2 2 -0 0
-0 -0 -0 -0 -1 -1 -2 -2 -1 -2 -2 -2 -1 -1 -1 -1 -1 -1 -1 -1 -1 -0 0 0 -0 -0 0 0 -0 -0 -0 -0 -1 -0 0 1 1 1 1 1 0 0 1 2 3 3 4 4 1 -1 -1 0 -0 -0 1 5 5 4 3 2 2 3 5 5 3 3 3 3 0
-1 -1 -1 -1 -1 -1 -2 -2 -2 -1 -1 -2 -1 -0 0 0 0 0 0 -0 -0 0 1 1 1 1 0 0 1 1 0 0 -1 -1 -1 -0 0 1 1 1 1 1 2 3 4 5 5 4 1 -0 -0 1 1 1 2 4 4 3 2 3 2 2 3 6 6 6 5 5 2
-1 -1 -1 -1 -1 -1 -2 -2 -2 -1 -1 -1 -0 0 1 1 2 2 2 1 0 0 1 2 2 1 0 0 0 1 1 1 -0 -1 -2 -2 -1 -1 0 0 0 1 1 2 4 5 4 3 2 1 2 3 3 2 1 3 3 2 1 1 2 2 1 2 6 7 7 5 4
-1 -1 -0 -1 -1 -1 -2 -1 -2 -1 -1 -0 0 0 1 1 2 2 2 1 1 0 0 1 1 1 0 -0 -0 -0 0 0 -0 -1 -2 -3 -2 -2 -1 -1 -0 -0 1 2 3 4 3 1 0 0 1 3 4 3 1 2 3 2 0 -1 1 1 -1 -2 3 6 7 5 4
-0 -1 -1 -1 -1 -1 -1 -1 -2 -2 -2 -1 -1 -1 -1 -0 0 0 0 -0 -0 -0 -0 0 0 0 -0 -1 -1 -1 -1 -1 -1 -1 -2 -2 -2 -2 -1 -1 -1 -0 0 1 3 3 2 1 0 -1 -1 0 2 3 2 2 3 2 -0 -1 0 0 -1 -2 2 4 6 6 3
-0 -0 -1 -1 -1 -1 -2 -2 -2 -3 -3 -2 -2 -2 -2 -2 -1 -1 -1 -1 -1 -1 -1 -1 -1 -0 -0 -0 -1 -1 -1 -1 -1 -2 -2 -2 -2 -1 -1 -1 -1 -0 0 1 3 3 2 1 1 0 -0 -1 0 2 3 4 3 1 0 -0 -1 -1 -1 0 2 4 5 4 2
-0 -0 -1 -1 -1 -1 -2 -2 -2 -3 -3 -3 -3 -2 -2 -2 -2 -1 -1 -1 -1 -1 -1 -1 -1 -1 -1 0 -0 -0 -1 -1 -1 -2 -2 -2 -2 -1 -1 -1 -1 -0 0 1 2 2 2 1 1 1 0 -1 -1 0 2 4 3 2 1 0 -1 -1 -1 0 3 5 5 4 2
-1 -1 -1 -1 -1 -1 -1 -1 -2 -2 -2 -2 -2 -2 -1 -1 -1 -1 -1 -1 -1 -1 -1 -1 -1 -1 -1 -1 -0 0 -0 -1 -1 -1 -1 -2 -2 -1 -1 -0 -0 0 1 1 1 1 2 2 2 2 1 -1 -2 -1 -0 2 2 2 2 1 1 0 -0 1 3 5 5 5 3
-1 -1 -1 -1 -1 -1 -1 -1 -1 -1 -1 -2 -1 -1 -1 -1 -1 -1 -1 -0 -1 -1 -1 -1 -1 -1 -1 -1 -1 -0 -0 -1 -1 -1 -1 -1 -1 -1 -1 -1 -0 0 1 1 0 0 1 2 3 2 1 -1 -2 -2 -1 -0 1 1 1 1 2 1 1 2 4 5 5 4 3
-1 -1 -1 -2 -2 -2 -2 -1 -1 -1 -1 -1 -1 -1 -0 -0 -0 -1 -1 -0 -0 -1 -2 -2 -1 -1 -1 -2 -1 -0 -1 -2 -1 -1 -1 -1 -1 -1 -1 -1 -1 -0 0 0 0 -0 -0 1 2 2 1 -0 -2 -2 -2 -1 -1 -0 0 1 1 2 3 3 4 5 5 3 2
-2 -2 -2 -2 -2 -2 -2 -2 -1 -1 -1 -1 -1 -1 -0 0 0 -1 -1 -1 0 0 -1 -2 -2 -1 -1 -1 -1 -0 -0 -1 -2 -2 -1 -1 -1 -1 -1 -1 -1 -1 -0 -0 -0 0 0 0 0 1 1 -0 -1 -2 -1 -1 -1 -1 -1 0 0 1 3 3 4 4 4 3 1
-2 -2 -3 -3 -3 -3 -3 -2 -2 -1 -1 -1 -1 -1 -1 -1 -0 -1 -1 -1 0 1 0 -1 -2 -2 -1 -1 -1 -1 -0 -1 -2 -2 -2 -1 -2 -1 -1 -1 -1 -1 -1 -1 -0 0 1 0 0 0 0 -0 -1 -1 -1 0 0 -0 -0 0 0 1 2 3 3 3 2 2 1
-2 -2 -3 -3 -3 -3 -2 -2 -2 -1 -1 -1 -1 -1 -1 -1 -1 -1 -1 -1 -0 0 0 -0 -1 -2 -2 -2 -2 -1 -1 -0 -1 -2 -2 -2 -2 -2 -2 -2 -3 -3 -2 -1 -1 0 1 1 0 -0 -0 -0 -0 -0 0 0 0 1 1 2 2 2 2 3 3 2 1 0 -0
-2 -2 -3 -3 -3 -2 -2 -2 -2 -1 -1 -1 -1 -2 -2 -2 -1 -1 -1 -1 -1 -0 -0 -1 -1 -1 -1 -2 -2 -2 -2 -1 -0 -1 -1 -1 -1 -1 -1 -1 -3 -4 -3 -1 -1 -0 0 0 0 0 0 -1 -1 1 2 2 0 0 1 3 3 3 3 4 4 3 1 0 -1
-3 -3 -3 -3 -3 -2 -2 -2 -2 -2 -2 -2 -2 -2 -2 -2 -1 -1 -1 -1 -1 -1 -1 -1 -1 -1 -1 -1 -1 -2 -3 -2 -2 -1 -0 0 -1 -1 -0 0 -2 -4 -4 -2 -1 -0 -0 -2 -2 -1 -0 -1 -2 -1 0 2 1 0 -0 0 1 2 2 2 2 2 1 -1 -1
-3 -3 -3 -3 -3 -2 -2 -2 -2 -2 -2 -2 -2 -2 -2 -1 -2 -1 -1 -1 -1 -1 -1 -1 -1 -2 -2 -1 -1 -1 -2 -3 -4 -3 -1 1 1 0 -0 0 -1 -2 -3 -3 -0 1 1 -1 -3 -3 -2 -2 -3 -3 -2 -1 0 -0 -1 -2 -2 -2 -1 -0 1 1 0 -1 -1
-2 -2 -2 -2 -2 -2 -2 -2 -2 -2 -2 -2 -1 -1 -1 -2 -2 -2 -2 -2 -2 -1 -1 -1 -2 -2 -2 -3 -2 -1 -1 -2 -3 -4 -3 -2 1 2 2 0 -1 -1 -1 -1 1 2 3 2 0 -1 -3 -3 -3 -3 -2 -1 0 1 0 -0 -1 -2 -2 -3 -1 0 1 0 0
-2 -2 -2 -2 -2 -2 -2 -1 -1 -2 -2 -2 -2 -2 -2 -1 -1 -2 -2 -2 -2 -2 -2 -2 -2 -2 -2 -3 -3 -2 -1 0 -1 -3 -3 -4 -2 0 2 2 -1 -2 -2 -0 1 2 2 3 3 3 1 -1 -2 -3 -2 -2 0 2 2 2 2 2 0 -2 -3 -2 -1 -1 -2
-2 -2 -2 -2 -2 -2 -2 -1 -1 -1 -1 -1 -1 -1 -1 -1 -1 -1 -2 -2 -2 -2 -2 -2 -3 -3 -3 -3 -2 -2 -1 -0 -0 -1 -2 -4 -4 -3 -1 1 -0 -2 -2 -2 -0 1 1 2 3 4 5 3 0 -1 -2 -2 -0 2 2 1 1 1 1 -1 -3 -3 -2 -2 -2
-2 -2 -3 -3 -2 -2 -1 -1 -1 -1 -1 -1 -1 -1 -1 -1 -1 -1 -1 -2 -2 -2 -2 -2 -2 -2 -2 -3 -2 -1 -1 -1 -1 -2 -2 -3 -3 -4 -3 -2 -1 -1 -1 -1 -1 0 1 2 3 4 5 5 3 0 -1 -1 -1 0 1 2 1 1 1 1 -0 -0 -0 -0 1
-1 -2 -3 -3 -2 -2 -1 -1 -1 -0 -0 -1 -1 -1 -1 -1 -1 -1 -1 -2 -1 -1 -1 -2 -1 -1 -2 -3 -3 -2 -1 -1 -2 -3 -3 -3 -3 -3 -2 -2 -2 -2 -1 1 1 1 1 1 2 3 4 6 5 2 0 -0 0 1 1 1 2 3 3 2 1 0 0 1 2
-1 -2 -2 -2 -2 -2 -1 -0 -0 -0 -0 -1 -1 -1 -1 -2 -2 -2 -2 -2 -1 -0 0 -0 -1 -0 -0 -1 -2 -3 -3 -2 -1 -2 -3 -5 -4 -3 -2 -1 -1 -2 -1 1 1 0 0 1 2 2 4 5 6 4 2 1 2 2 2 1 1 1 1 0 1 0 -0 -2 -1
-1 -1 -2 -2 -2 -1 -1 0 0 -0 -1 -1 -1 -2 -2 -2 -2 -1 -1 -0 -1 -1 -0 0 -1 -1 -0 1 0 -1 -2 -2 -0 0 -1 -3 -5 -5 -3 -2 -1 -1 -1 0 0 -0 0 1 2 3 4 5 5 4 3 2 2 2 2 0 -1 -1 -2 -2 -2 -1 -1 -2 -3
-1 -1 -1 -2 -1 -1 -1 -0 -0 -0 -1 -1 -1 -1 -1 -1 -1 -1 -0 -0 -1 -2 -2 -1 -2 -2 -3 -1 -0 0 -0 -1 -1 -1 0 -0 -3 -5 -5 -3 -2 -1 -1 0 0 -0 -0 1 2 2 3 4 4 4 3 2 2 1 0 -1 -2 -1 -1 -1 -2 -3 -3 -1 0
-0 -0 -1 -1 -1 -1 -1 -1 -1 -1 -1 -1 -1 -1 -1 -2 -2 -1 -1 -1 -2 -2 -3 -2 -2 -3 -3 -3 -3 -2 -1 -0 -1 -2 -2 -0 -1 -3 -4 -4 -3 -2 -1 0 0 0 0 1 2 2 3 4 4 4 3 3 2 0 -1 -2 -1 0 1 1 -1 -3 -3 -1 2
-1 -1 -1 -1 -1 -1 -1 -1 -1 -1 -1 -1 -1 -0 -1 -2 -3 -3 -3 -1 -2 -2 -2 -2 -1 -2 -2 -2 -3 -3 -3 -1 -0 -1 -2 -2 -1 -2 -2 -2 -2 -1 -0 1 0 0 1 1 2 2 2 3 4 3 2 2 2 1 -1 -2 -1 -1 -1 -1 -2 -3 -2 0 2
-2 -2 -2 -2 -2 -1 -1 -1 -1 -1 -1 -2 -2 -1 -1 -0 -2 -3 -3 -2 -1 -2 -3 -2 -1 -1 -1 -2 -1 -2 -3 -4 -2 -1 -0 -2 -2 -2 -2 -2 -1 -0 1 1 0 0 0 1 2 2 3 4 3 3 2 1 0 -0 -1 -1 -2 -2 -2 -2 -2 -1 -0 1 2
-2 -2 -2 -2 -2 -1 -1 -1 -1 -1 -2 -2 -3 -3 -2 -2 -1 -2 -3 -4 -3 -3 -3 -3 -2 -1 -0 -0 -0 -0 -1 -3 -3 -2 -1 -0 -1 -3 -3 -3 -1 -0 1 2 0 0 0 1 2 2 3 4 3 2 1 0 -1 -1 -1 -1 -2 -3 -2 -1 -1 -0 0 1 1
-2 -1 -2 -2 -2 -2 -1 -1 -2 -2 -2 -2 -3 -3 -3 -3 -3 -2 -2 -3 -4 -4 -3 -2 -2 -1 -1 -0 0 0 1 0 -2 -2 -2 -1 -1 -2 -3 -4 -2 -1 0 1 1 0 0 1 2 3 4 4 2 1 1 0 -1 -1 -1 -1 -2 -3 -2 -1 -1 -0 0 0 1
-1 -1 -1 -2 -2 -2 -2 -2 -2 -2 -3 -3 -3 -3 -3 -3 -3 -3 -2 -1 -3 -5 -5 -3 -1 -1 -1 -0 -0 0 1 2 1 -1 -2 -2 -1 -1 -2 -4 -4 -2 -1 0 0 0 0 1 1 3 4 4 2 2 1 1 -1 -1 -2 -2 -4 -4 -3 -1 -0 0 1 1 1
-1 -1 -1 -1 -2 -2 -2 -2 -2 -3 -3 -3 -3 -3 -3 -3 -3 -3 -2 -0 -1 -3 -4 -4 -2 -0 0 0 -1 -1 0 2 2 1 -1 -3 -2 -1 -1 -3 -5 -4 -2 0 0 0 0 1 1 2 3 4 3 2 2 1 -0 -1 -2 -3 -4 -4 -3 1 3 2 1 -1 -0
-1 -1 -0 -1 -2 -2 -2 -2 -2 -2 -2 -3 -3 -3 -3 -3 -3 -3 -2 -0 1 -0 -2 -3 -2 -1 1 1 -1 -2 -2 0 2 1 -0 -2 -2 -1 -1 -1 -3 -4 -3 -1 -0 0 0 0 0 1 2 3 3 3 3 3 1 -0 -1 -1 -0 -0 0 1 3 2 0 -3 -3
-1 -1 -1 -0 -1 -2 -3 -3 -2 -2 -1 -2 -3 -3 -3 -2 -2 -2 -1 -0 2 2 1 -2 -2 -1 1 2 -0 -2 -3 -3 -1 0 0 -1 -2 -1 -1 -1 -2 -3 -3 -2 -1 0 0 0 0 1 2 3 3 4 5 6 5 3 1 2 4 5 3 0 -1 -1 -2 -3 -3
Height
1536 1535 1534 1534 1532 1531 1530 1529 1528 1527 1526 1525 1524 1523 1521 1520 1519 1518 1516 1515 1514 1513 1512 1510 1509 1509 1508 1507 1506 1504 1503 1502 1501 1500 1499 1498 1497 1496 1495 1494 1494 1493 1492 1492 1491 1490 1489 1489 1488 1486 1484 1484 1483 1482 1482 1481 1481 1480 1479 1479 1477 1476 1475 1474 1473 1472 1472 1471 1470
1535 1534 1533 1532 1531 1529 1529 1528 1526 1525 1524 1523 1522 1521 1520 1519 1517 1516 1515 1514 1513 1511 1510 1509 1508 1507 1506 1505 1504 1503 1502 1500 1499 1498 1497 1496 1495 1494 1494 1493 1492 1491 1490 1490 1489 1488 1488 1487 1485 1484 1482 1481 1480 1480 1479 1479 1479 1478 1476 1475 1475 1474 1472 1471 1470 1469 1469 1468 1467
1534 1532 1531 1530 1529 1528 1527 1526 1525 1524 1523 1522 1520 1519 1518 1517 1516 1514 1513 1512 1511 1510 1509 1508 1506 1505 1504 1504 1502 1501 1500 1499 1498 1497 1495 1494 1494 1493 1492 1491 1490 1489 1489 1488 1487 1486 1485 1484 1483 1482 1480 1479 1478 1477 1476 1476 1476 1475 1473 1472 1471 1470 1469 1468 1466 1466 1465 1464 1463
1532 1531 1530 1529 1528 1526 1525 1524 1523 1522 1521 1520 1519 1518 1517 1515 1514 1513 1512 1511 1510 1509 1507 1506 1505 1504 1503 1502 1501 1500 1499 1497 1496 1495 1494 1493 1492 1491 1490 1489 1489 1488 1487 1486 1485 1484 1484 1483 1481 1479 1478 1477 1475 1474 1474 1473 1473 1471 1470 1469 1468 1467 1465 1464 1463 1463 1462 1460 1460
1530 1529 1528 1527 1526 1525 1524 1523 1522 1521 1519 1519 1517 1516 1515 1514 1513 1511 1510 1509 1508 1507 1506 1504 1503 1502 1501 1500 1499 1498 1497 1496 1495 1494 1493 1491 1490 1489 1489 1488 1487 1486 1485 1484 1483 1482 1481 1480 1479 1477 1475 1474 1473 1472 1471 1470 1469 1468 1467 1465 1464 1463 1462 1461 1460 1459 1458 1457 1456
1529 1528 1526 1525 1524 1523 1522 1521 1520 1519 1518 1517 1516 1514 1513 1512 1511 1509 1508 1507 1506 1505 1504 1503 1502 1500 1499 1498 1497 1496 1495 1494 1493 1492 1491 1490 1489 1488 1487 1486 1485 1484 1483 1482 1481 1480 1479 1478 1476 1474 1473 1472 1470 1469 1468 1468 1466 1465 1464 1462 1461 1460 1459 1458 1456 1456 1455 1454 1453
1527 1526 1525 1524 1523 1522 1521 1519 1519 1517 1516 1515 1514 1513 1512 1510 1509 1508 1507 1505 1504 1503 1502 1501 1500 1499 1497 1496 1495 1494 1493 1492 1491 1490 1489 1488 1487 1486 1485 1484 1483 1482 1481 1480 1479 1478 1476 1475 1473 1471 1470 1469 1467 1466 1465 1465 1463 1462 1460 1459 1458 1457 1456 1454 1453 1452 1451 1450 1449
1525 1524 1523 1522 1521 1520 1519 1518 1517 1516 1515 1514 1512 1511 1510 1509 1507 1506 1505 1504 1502 1501 1500 1499 1498 1496 1495 1494 1493 1492 1491 1490 1489 1488 1487 1486 1485 1484 1483 1482 1481 1480 1479 1478 1477 1475 1474 1472 1470 1469 1467 1466 1464 1463 1462 1461 1460 1459 1457 1456 1454 1454 1452 1451 1450 1449 1448 1446 1445
1524 1523 1522 1521 1520 1519 1518 1516 1515 1514 1513 1512 1511 1509 1508 1507 1505 1504 1503 1502 1500 1499 1498 1497 1495 1494 1493 1492 1491 1489 1488 1487 1486 1485 1484 1483 1482 1481 1480 1479 1478 1477 1476 1475 1474 1473 1471 1469 1467 1466 1464 1463 1462 1460 1459 1458 1457 1455 1454 1452 1451 1450 1449 1448 1447 1446 1444 1443 1442
1522 1521 1520 1519 1518 1517 1516 1515 1514 1513 1511 1510 1509 1508 1507 1505 1504 1502 1501 1500 1498 1497 1496 1495 1493 1492 1491 1489 1488 1487 1486 1484 1483 1482 1481 1480 1479 1478 1477 1476 1475 1474 1473 1472 1471 1469 1468 1466 1464 1463 1461 1460 1459 1457 1456 1455 1454 1452 1450 1449 1448 1446 1445 1444 1444 1443 1441 1440 1439
1521 1520 1519 1518 1516 1515 1514 1513 1512 1511 1510 1509 1507 1506 1505 1503 1502 1500 1499 1498 1496 1495 1494 1492 1491 1489 1488 1487 1485 1484 1483 1482 1480 1479 1478 1477 1476 1475 1474 1473 1472 1471 1470 1469 1468 1466 1464 1463 1461 1459 1458 1457 1455 1454 1452 1451 1450 1448 1446 1445 1444 1443 1442 1440 1440 1439 1438 1437 1435
1519 1518 1517 1516 1515 1514 1512 1511 1510 1509 1508 1507 1505 1504 1503 1501 1500 1499 1497 1495 1494 1492 1491 1490 1488 1487 1485 1484 1483 1481 1480 1479 1477 1476 1475 1474 1473 1472 1470 1469 1468 1467 1466 1465 1464 1462 1460 1459 1457 1456 1454 1453 1452 1450 1449 1447 1446 1444 1443 1441 1440 1439 1438 1436 1436 1435 1434 1433 1432
1518 1517 1515 1514 1513 1512 1510 1509 1508 1507 1506 1504 1503 1502 1500 1499 1498 1496 1494 1493 1491 1490 1488 1487 1485 1484 1483 1481 1479 1478 1477 1475 1474 1473 1471 1470 1469 1468 1467 1466 1464 1464 1462 1461 1460 1459 1457 1455 1454 1452 1450 1449 1448 1447 1445 1444 1442 1441 1439 1438 1437 1435 1434 1433 1432 1432 1431 1429 1428
1516 1515 1514 1512 1511 1510 1509 1507 1506 1504 1503 1502 1501 1499 1498 1496 1495 1494 1492 1490 1489 1487 1485 1484 1483 1481 1480 1478 1477 1475 1474 1472 1471 1469 1468 1467 1466 1464 1463 1462 1461 1460 1459 1458 1456 1455 1453 1452 1450 1449 1447 1445 1444 1443 1442 1440 1439 1437 1436 1434 1433 1432 1430 1429 1429 1428 1427 1425 1424
1514 1513 1512 1510 1509 1508 1506 1505 1504 1502 1501 1499 1498 1497 1495 1494 1492 1491 1489 1488 1486 1484 1483 1481 1480 1478 1477 1475 1474 1472 1471 1469 1468 1466 1465 1464 1462 1461 1460 1459 1457 1456 1455 1454 1453 1451 1450 1448 1446 1445 1443 1441 1440 1439 1438 1437 1435 1434 1432 1431 1429 1428 1427 1426 1425 1424 1423 1422 1420
1513 1511 1510 1509 1507 1506 1504 1503 1501 1500 1498 1497 1495 1494 1493 1491 1489 1488 1486 1485 1483 1481 1480 1478 1477 1475 1474 1472 1471 1469 1468 1466 1465 1463 1462 1460 1459 1458 1456 1455 1454 1453 1451 1450 1449 1447 1446 1445 1443 1441 1439 1438 1436 1435 1434 1433 1431 1430 1429 1427 1426 1424 1423 1422 1421 1420 1419 1418 1417
1511 1509 1508 1506 1505 1504 1502 1501 1499 1498 1496 1494 1493 1492 1490 1489 1487 1485 1484 1482 1480 1479 1477 1475 1474 1472 1471 1469 1468 1467 1465 1463 1462 1460 1459 1457 1456 1454 1453 1452 1450 1449 1448 1447 1445 1444 1442 1441 1439 1438 1436 1434 1433 1431 1430 1429 1428 1426 1425 1424 1422 1421 1419 1418 1417 1416 1415 1414 1413
1509 1507 1506 1504 1503 1501 1500 1499 1497 1495 1494 1492 1490 1489 1487 1486 1484 1482 1481 1479 1478 1476 1474 1472 1471 1469 1468 1466 1465 1463 1462 1460 1458 1457 1455 1454 1453 1451 1449 1448 1447 1446 1444 1443 1442 1440 1439 1437 1436 1434 1433 1431 1429 1428 1426 1425 1424 1422 1421 1419 1418 1417 1415 1414 1414 1413 1412 1411 1409
1506 1505 1503 1502 1500 1499 1498 1496 1494 1493 1491 1489 1488 1486 1485 1483 1481 1480 1478 1476 1475 1473 1471 1469 1468 1466 1465 1464 1462 1460 1459 1457 1455 1454 1452 1451 1449 1448 1446 1445 1444 1442 1441 1439 1438 1436 1435 1434 1433 1431 1429 1428 1426 1424 1423 1421 1420 1418 1417 1415 1414 1413 1411 1410 1409 1409 1408 1407 1406
1504 1503 1501 1499 1498 1497 1495 1494 1492 1490 1489 1487 1485 1484 1482 1480 1479 1477 1475 1474 1472 1470 1469 1467 1465 1464 1462 1461 1459 1457 1456 1454 1453 1451 1449 1448 1446 1444 1443 1441 1440 1438 1437 1436 1434 1433 1431 1430 1429 1427 1426 1424 1422 1420 1419 1418 1416 1414 1413 1411 1410 1409 1407 1406 1406 1405 1404 1403 1403
1502 1500 1499 1497 1496 1494 1493 1491 1489 1488 1486 1484 1483 1481 1479 1478 1476 1474 1473 1471 1469 1468 1466 1464 1463 1461 1459 1458 1456 1454 1453 1451 1449 1448 1446 1444 1443 1441 1439 1438 1436 1434 1433 1432 1430 1429 1428 1426 1425 1423 1422 1420 1418 1417 1415 1414 1412 1410 1409 1408 1406 1405 1404 1403 1402 1401 1400 1400 1399
1499 1498 1496 1495 1493 1492 1490 1488 1487 1485 1484 1482 1480 1479 1477 1475 1474 1472 1470 1469 1467 1465 1464 1462 1460 1458 1457 1455 1453 1451 1450 1448 1447 1445 1443 1441 1439 1438 1436 1434 1433 1430 1429 1428 1426 1425 1424 1422 1421 1419 1418 1416 1414 1413 1411 1410 1408 1406 1405 1404 1403 1402 1401 1400 1399 1398 1397 1397 1396
1497 1495 1494 1492 1491 1489 1488 1486 1484 1483 1481 1479 1478 1476 1474 1473 1471 1469 1468 1466 1464 1463 1461 1459 1458 1456 1454 1452 1450 1448 1446 1444 1443 1441 1440 1438 1436 1434 1433 1431 1429 1427 1425 1424 1422 1421 1420 1418 1417 1415 1414 1412 1410 1409 1407 1406 1404 1402 1401 1400 1399 1398 1397 1396 1396 1395 1394 1394 1393
1495 1493 1491 1490 1488 1486 1485 1483 1482 1480 1478 1477 1475 1474 1472 1470 1469 1467 1465 1464 1462 1460 1459 1457 1455 1453 1451 1449 1447 1445 1443 1441 1439 1438 1436 1434 1433 1431 1429 1427 1425 1424 1422 1420 1419 1418 1417 1415 1413 1411 1410 1408 1406 1405 1403 1401 1400 1399 1397 1396 1395 1394 1393 1393 1392 1392 1391 1391 1390
1492 1491 1489 1487 1486 1484 1482 1481 1479 1478 1476 1474 1473 1471 1469 1468 1466 1464 1463 1461 1459 1458 1456 1454 1452 1450 1448 1446 1444 1442 1440 1438 1436 1434 1432 1431 1429 1428 1426 1424 1422 1420 1419 1417 1416 1415 1414 1412 1410 1409 1407 1405 1403 1401 1400 1398 1397 1396 1394 1393 1392 1391 1390 1389 1389 1389 1389 1388 1387
1490 1488 1487 1485 1484 1482 1480 1479 1477 1475 1474 1472 1470 1469 1467 1465 1464 1462 1460 1458 1456 1454 1453 1451 1449 1446 1444 1443 1440 1439 1437 1435 1433 1431 1429 1427 1425 1424 1422 1421 1419 1417 1415 1414 1413 1412 1410 1409 1408 1406 1404 1403 1401 1399 1397 1395 1394 1393 1392 1391 1390 1389 1388 1387 1386 1386 1385 1385 1384
1488 1486 1484 1483 1481 1479 1478 1476 1475 1473 1471 1469 1468 1466 1464 1463 1461 1459 1457 1455 1453 1451 1449 1448 1445 1444 1441 1439 1437 1436 1434 1432 1430 1428 1426 1424 1422 1420 1419 1417 1415 1413 1412 1410 1409 1408 1407 1406 1405 1404 1402 1401 1399 1397 1395 1393 1391 1390 1390 1389 1388 1387 1386 1385 1384 1383 1383 1382 1381
1485 1484 1482 1480 1479 1477 1476 1474 1472 1471 1469 1467 1465 1464 1462 1460 1459 1457 1454 1453 1450 1449 1446 1444 1443 1441 1439 1436 1434 1433 1431 1429 1427 1425 1423 1421 1419 1417 1415 1414 1412 1410 1409 1407 1406 1405 1404 1403 1401 1400 1399 1398 1396 1394 1392 1390 1389 1388 1387 1386 1385 1385 1384 1383 1382 1381 1380 1379 1379
1484 1482 1480 1478 1477 1475 1474 1472 1470 1469 1467 1465 1463 1461 1459 1458 1456 1454 1452 1450 1448 1446 1444 1442 1440 1438 1436 1434 1432 1429 1428 1426 1424 1422 1420 1418 1416 1414 1412 1410 1409 1407 1405 1404 1403 1402 1400 1399 1398 1397 1396 1395 1394 1392 1390 1389 1387 1386 1385 1384 1383 1383 1382 1381 1380 1379 1378 1377 1376
1481 1479 1478 1476 1474 1473 1471 1469 1468 1466 1464 1463 1461 1459 1457 1455 1453 1451 1449 1447 1445 1443 1441 1439 1437 1435 1433 1431 1429 1427 1425 1423 1421 1419 1417 1415 1413 1411 1409 1408 1406 1404 1402 1401 1400 1399 1397 1396 1395 1394 1393 1392 1391 1390 1388 1386 1385 1384 1383 1381 1380 1380 1379 1378 1377 1376 1375 1374 1374
1479 1477 1476 1474 1472 1470 1469 1467 1465 1464 1462 1460 1458 1456 1454 1453 1451 1449 1447 1445 1443 1440 1439 1437 1434 1432 1430 1428 1426 1424 1422 1420 1419 1417 1415 1413 1410 1408 1406 1404 1403 1401 1399 1398 1397 1395 1394 1393 1392 1391 1390 1389 1388 1387 1385 1384 1383 1382 1380 1379 1378 1377 1376 1375 1374 1374 1373 1372 1371
1477 1475 1474 1472 1470 1468 1467 1465 1463 1461 1459 1458 1456 1454 1452 1450 1449 1447 1444 1442 1440 1438 1436 1434 1432 1429 1427 1425 1424 1422 1420 1418 1416 1414 1412 1410 1408 1405 1403 1401 1399 1398 1396 1395 1394 1393 1391 1390 1389 1388 1387 1386 1385 1384 1383 1382 1380 1379 1378 1377 1375 1374 1374 1373 1372 1371 1370 1369 1368
1475 1473 1471 1469 1468 1466 1464 1463 1461 1459 1457 1455 1454 1452 1450 1448 1446 1444 1442 1440 1438 1435 1433 1431 1429 1427 1424 1423 1421 1419 1417 1415 1413 1411 1409 1407 1405 1403 1401 1399 1397 1395 1394 1392 1391 1390 1389 1387 1386 1385 1384 1384 1383 1382 1380 1379 1378 1376 1375 1374 1373 1372 1371 1370 1369 1368 1367 1366 1366
1473 1471 1469 1467 1465 1464 1462 1460 1459 1457 1455 1453 1451 1450 1448 1446 1443 1441 1439 1437 1435 1433 1431 1429 1427 1424 1423 1420 1419 1416 1414 1412 1410 1409 1407 1405 1403 1400 1398 1396 1394 1392 1391 1390 1389 1387 1386 1385 1384 1383 1382 1381 1380 1379 1378 1376 1375 1374 1373 1372 1370 1369 1369 1368 1366 1365 1364 1364 1363
1471 1469 1467 1465 1463 1461 1459 1458 1456 1454 1453 1451 1449 1447 1445 1443 1441 1439 1437 1434 1433 1430 1428 1426 1424 1422 1420 1418 1416 1414 1412 1410 1408 1406 1404 1402 1400 1398 1395 1393 1391 1390 1389 1388 1386 1385 1384 1382 1381 1380 1380 1379 1378 1376 1375 1374 1373 1372 1370 1369 1368 1367 1366 1365 1364 1363 1362 1361 1361
1469 1466 1464 1463 1461 1459 1457 1456 1454 1452 1450 1449 1447 1444 1443 1441 1439 1437 1435 1432 1430 1428 1425 1424 1422 1420 1418 1416 1414 1412 1410 1408 1405 1403 1401 1399 1398 1395 1392 1390 1388 1387 1386 1385 1384 1382 1381 1380 1379 1379 1378 1377 1375 1374 1373 1371 1370 1369 1368 1367 1366 1365 1364 1363 1362 1361 1360 1359 1358
1466 1464 1462 1460 1459 1457 1455 1453 1452 1450 1448 1446 1444 1442 1440 1438 1436 1434 1432 1430 1428 1425 1423 1421 1419 1417 1415 1414 1411 1409 1408 1406 1404 1401 1399 1397 1395 1393 1390 1387 1385 1384 1383 1383 1381 1380 1379 1378 1377 1376 1376 1374 1373 1372 1371 1369 1368 1367 1366 1365 1364 1362 1362 1361 1359 1359 1358 1357 1356
1464 1462 1460 1458 1456 1454 1453 1451 1449 1447 1445 1444 1442 1440 1438 1436 1434 1431 1429 1428 1426 1423 1420 1419 1417 1415 1413 1411 1409 1406 1404 1403 1401 1399 1396 1394 1392 1390 1388 1385 1383 1382 1381 1380 1379 1378 1377 1376 1375 1374 1374 1373 1371 1370 1369 1367 1366 1365 1364 1362 1361 1360 1359 1359 1357 1356 1355 1354 1354
1462 1460 1458 1456 1454 1452 1450 1449 1447 1445 1443 1441 1439 1437 1435 1434 1431 1429 1427 1426 1424 1421 1419 1416 1414 1413 1411 1409 1406 1404 1402 1400 1399 1397 1394 1392 1390 1388 1386 1384 1381 1379 1379 1378 1377 1376 1375 1374 1374 1373 1372 1371 1369 1368 1367 1365 1364 1363 1361 1360 1359 1358 1357 1356 1355 1354 1353 1352 1351
1460 1458 1456 1454 1452 1450 1448 1446 1444 1443 1441 1439 1437 1434 1433 1431 1429 1427 1425 1424 1422 1420 1417 1415 1412 1410 1409 1406 1404 1401 1399 1397 1395 1394 1392 1390 1388 1386 1384 1382 1380 1378 1377 1376 1375 1374 1374 1373 1372 1371 1370 1369 1368 1366 1365 1364 1362 1361 1359 1359 1357 1356 1355 1354 1354 1353 1351 1350 1349
1458 1456 1454 1452 1450 1448 1446 1444 1442 1440 1439 1437 1435 1433 1431 1429 1427 1425 1423 1421 1419 1418 1415 1413 1410 1408 1406 1404 1402 1399 1396 1394 1393 1391 1390 1388 1386 1384 1383 1381 1379 1377 1375 1374 1374 1373 1372 1371 1370 1369 1368 1367 1366 1365 1364 1362 1361 1359 1358 1357 1356 1355 1354 1352 1351 1350 1349 1348 1346